Location: Caixon
(43.4106°N, 0.0273°E)
Time: 16:24:30
(UTC+00:00)

Meteor 1-13 Rocket - Pass Details

Date: 16 October 2021
Orbit: 830 x 912 km, 81.3° (Epoch: 28 November)

Event Time Altitude Azimuth Distance (km) Brightness Sun altitude
Exits shadow 04:06:42 51° 300° (WNW) 1,053 4.3 -24.0°
Drops below altitude 10° 04:11:48 10° 1° (N) 2,497 6.8 -23.1°
Sets 04:14:20 0° 6° (N) 3,451 7.6 -22.6°
